Location: Makanda
(37.6176°N, 89.2090°W)
Time: 07:20:32
(UTC+00:00)

H-2A R/B - Pass Details

Date: 23 September 2019
Orbit: 529 x 654 km, 98.3° (Epoch: 20 October)

Event Time Altitude Azimuth Distance (km) Brightness Sun altitude
Rises 10:13:16 0° 7° (N) 2,676 6.1 -18.8°
Reaches altitude 10° 10:15:24 10° 3° (N) 1,783 5.1 -18.4°
Maximum altitude 10:19:08 53° 286° (WNW) 663 2.3 -17.7°
Enters shadow 10:20:19 37° 233° (SW) 845 2.8 -17.5°
